Wautoma, WI

4:08 PM CDT on July 23, 2017 (GMT -0500)
Wautoma

Weather History for KY50 - May, 2013

Change the Weather History Date:

Tuesday, May 21, 2013

  Actual Average (KPCZ) Record (KPCZ)
Temperature  
Mean Temperature 69 °F -  
Max Temperature 75 °F 72 °F 90 °F (1970)
Min Temperature 59 °F 45 °F 30 °F (1969)
Cooling Degree Days 4    
Growing Degree Days 19 (Base 50)    
Moisture  
Dew Point 58 °F    
Average Humidity 68    
Maximum Humidity 94    
Minimum Humidity 50    
Precipitation  
Precipitation 0.00 in - - ()
Sea Level Pressure  
Sea Level Pressure 29.62 in    
Wind  
Wind Speed 9 mph (SSW)    
Max Wind Speed 16 mph    
Max Gust Speed 21 mph    
Visibility 10 miles    
Events Rain    
Averages and records for this station are not official NWS values.
T = Trace of Precipitation, MM = Missing Value Source: NWS Daily Summary

Daily Weather History Graph

Daily Weather History Graph

Search for Another Location

Airport or City:

Trip Planner

Search our weather history database for the weather conditions in past years. The results will help you decide how hot, cold, wet, or windy it might be!

Date:

Astronomy

May. 21, 2013 Rise Set
Actual Time 5:24 AM CDT 8:23 PM CDT
Civil Twilight 4:50 AM CDT 8:57 PM CDT
Nautical Twilight 4:07 AM CDT 9:41 PM CDT
Astronomical Twilight 3:15 AM CDT 10:33 PM CDT
Moon 4:30 PM CDT (5/21) 3:01 AM CDT (5/21)
Length of Visible Light 16h 07m
Length of Day
14h 58m
Waxing Gibbous, 84% of the Moon is Illuminated
May 21
Waxing Gibbous
May 24
Full
May 31
Last Quarter
Jun 8
New
Jun 16
First Quarter

Hourly Weather History & Observations

Time (CDT) Temp. Dew Point Humidity Pressure Visibility Wind Dir Wind Speed Gust Speed Precip Events Conditions
12:09 AM 66.2 °F 62.6 °F 88% 29.62 in 6.0 mi ENE 5.8 mph - 0.00 in Rain Light Rain
12:56 AM 66.2 °F 64.4 °F 94% 29.62 in 10.0 mi ESE 4.6 mph - N/A   Overcast
1:56 AM 68.0 °F 59.9 °F 75% 29.60 in 10.0 mi SSE 11.5 mph - 0.00 in   Mostly Cloudy
2:56 AM 68.9 °F 57.9 °F 68% 29.57 in 10.0 mi South 12.7 mph - N/A   Mostly Cloudy
3:56 AM 66.2 °F 57.2 °F 73% 29.60 in 10.0 mi SSW 8.1 mph - N/A   Mostly Cloudy
4:56 AM 64.9 °F 57.9 °F 78% 29.58 in 10.0 mi SSE 8.1 mph - 0.00 in   Mostly Cloudy
5:56 AM 63.0 °F 57.9 °F 84% 29.60 in 10.0 mi SSW 4.6 mph - N/A   Clear
6:56 AM 64.9 °F 57.9 °F 78% 29.60 in 10.0 mi South 4.6 mph - N/A   Clear
7:38 AM 66.2 °F 57.2 °F 73% 29.63 in 10.0 mi South 10.4 mph - N/A   Mostly Cloudy
7:56 AM 65.8 °F 57.9 °F 76% 29.61 in 10.0 mi SSW 11.5 mph - N/A   Overcast
8:48 AM 68.0 °F 59.0 °F 73% 29.63 in 10.0 mi SSW 9.2 mph - N/A   Partly Cloudy
8:56 AM 68.0 °F 59.0 °F 73% 29.61 in 10.0 mi South 6.9 mph - N/A   Partly Cloudy
9:56 AM 71.6 °F 59.0 °F 64% 29.62 in 10.0 mi SSE 11.5 mph - N/A   Scattered Clouds
10:37 AM 69.8 °F 59.0 °F 68% 29.63 in 10.0 mi South 11.5 mph - N/A   Mostly Cloudy
10:56 AM 70.0 °F 59.0 °F 68% 29.60 in 10.0 mi South 12.7 mph - 0.00 in Rain Light Rain
11:21 AM 69.8 °F 59.0 °F 68% 29.62 in 10.0 mi South 11.5 mph - 0.00 in   Mostly Cloudy
11:36 AM 73.4 °F 60.8 °F 65% 29.63 in 10.0 mi SSW 13.8 mph 17.3 mph 0.00 in   Mostly Cloudy
11:56 AM 72.0 °F 59.9 °F 66% 29.60 in 10.0 mi South 16.1 mph - 0.00 in   Partly Cloudy
12:56 PM 73.4 °F 55.4 °F 53% 29.61 in 10.0 mi SW 12.7 mph 20.7 mph N/A   Mostly Cloudy
1:56 PM 74.8 °F 54.9 °F 50% 29.60 in 10.0 mi SW 13.8 mph - N/A   Partly Cloudy
2:56 PM 74.8 °F 54.9 °F 50% 29.61 in 10.0 mi WSW 16.1 mph - N/A   Mostly Cloudy
3:56 PM 75.2 °F 55.4 °F 50% 29.63 in 10.0 mi SW 13.8 mph - N/A   Mostly Cloudy
4:56 PM 73.9 °F 54.9 °F 51% 29.62 in 10.0 mi WSW 12.7 mph - N/A   Mostly Cloudy
5:56 PM 72.9 °F 54.0 °F 51% 29.63 in 10.0 mi WSW 11.5 mph - N/A   Clear
6:56 PM 70.9 °F 54.0 °F 55% 29.64 in 10.0 mi WSW 6.9 mph - N/A   Scattered Clouds
7:56 PM 68.9 °F 54.0 °F 59% 29.65 in 10.0 mi WSW 8.1 mph - N/A   Overcast
8:56 PM 66.9 °F 54.0 °F 63% 29.68 in 10.0 mi WSW 5.8 mph - N/A   Overcast
9:56 PM 65.8 °F 54.9 °F 68% 29.69 in 10.0 mi West 4.6 mph - N/A   Overcast
10:56 PM 63.9 °F 57.9 °F 81% 29.68 in 10.0 mi Calm Calm - N/A   Overcast
11:56 PM 59.0 °F 55.9 °F 90% 29.67 in 10.0 mi Calm Calm - N/A   Clear